• In Hungary
  • List of Countries
  • For 7 days
  • Water Temperature
  • Satellite Maps
  • Weather Map
  • News
  • Weather Widgets
  • user-avatar
    Login

    Hourly Weather Bugojno

    Today, 17 December, Sunday

    Time Temperature Precipitation Wind Pressure Humidity
    00:00 +1°C° 0.1 mm 2 mps 706 mmHg 89%
    01:00 +1°C° 0 mm 1 mps 705 mmHg 92%
    02:00 -1°C° 0.5 mm 2 mps 705 mmHg 92%
    03:00 -1°C° 0.5 mm 2 mps 706 mmHg 92%
    04:00 -1°C° 0.5 mm 2 mps 706 mmHg 92%
    05:00 -1°C° 0.5 mm 3 mps 706 mmHg 92%
    06:00 -1°C° 0.5 mm 3 mps 707 mmHg 92%
    07:00 -1°C° 0 mm 3 mps 707 mmHg 91%
    08:00 -1°C° 0.3 mm 3 mps 707 mmHg 90%
    09:00 -2°C° 0.3 mm 4 mps 708 mmHg 89%
    10:00 -2°C° 0.3 mm 4 mps 708 mmHg 88%
    11:00 -1°C° 0.3 mm 4 mps 709 mmHg 87%
    12:00 -1°C° 0.3 mm 4 mps 709 mmHg 86%
    13:00 0°C° 0 mm 3 mps 709 mmHg 83%
    14:00 0°C° 0.1 mm 3 mps 709 mmHg 84%
    15:00 -1°C° 0.1 mm 3 mps 709 mmHg 86%
    16:00 -1°C° 0.1 mm 3 mps 710 mmHg 88%
    17:00 -2°C° 0.1 mm 3 mps 710 mmHg 89%
    18:00 -2°C° 0.1 mm 3 mps 711 mmHg 90%
    19:00 -2°C° 0.1 mm 2 mps 711 mmHg 91%
    20:00 -2°C° 0.1 mm 3 mps 711 mmHg 90%
    21:00 -2°C° 0.1 mm 3 mps 712 mmHg 90%
    22:00 -2°C° 0.1 mm 3 mps 712 mmHg 90%
    23:00 -2°C° 0.1 mm 3 mps 712 mmHg 90%

    Tomorrow, 18 December, Monday

    Time Temperature Precipitation Wind Pressure Humidity
    00:00 -4°C° 0.1 mm 3 mps 713 mmHg 90%
    01:00 -4°C° 0.1 mm 3 mps 713 mmHg 90%
    02:00 -4°C° 0.2 mm 3 mps 713 mmHg 91%
    03:00 -4°C° 0.2 mm 3 mps 713 mmHg 91%
    04:00 -4°C° 0.2 mm 3 mps 712 mmHg 91%
    05:00 -4°C° 0.2 mm 3 mps 712 mmHg 91%
    06:00 -4°C° 0.2 mm 3 mps 713 mmHg 90%
    07:00 -4°C° 0.2 mm 3 mps 713 mmHg 90%
    08:00 -4°C° 0.3 mm 3 mps 713 mmHg 88%
    09:00 -2°C° 0.3 mm 3 mps 713 mmHg 87%
    10:00 -2°C° 0.3 mm 3 mps 714 mmHg 85%
    11:00 -2°C° 0.2 mm 3 mps 714 mmHg 84%
    12:00 -1°C° 0.2 mm 3 mps 713 mmHg 83%
    13:00 -1°C° 0.2 mm 3 mps 713 mmHg 82%
    14:00 -2°C° 0.2 mm 3 mps 713 mmHg 84%
    15:00 -2°C° 0.2 mm 3 mps 713 mmHg 86%
    16:00 -3°C° 0.2 mm 2 mps 713 mmHg 88%
    17:00 -3°C° 0.1 mm 2 mps 714 mmHg 89%
    18:00 -4°C° 0.1 mm 2 mps 714 mmHg 90%
    19:00 -4°C° 0.1 mm 2 mps 714 mmHg 91%
    20:00 -5°C° 0.1 mm 2 mps 715 mmHg 91%
    21:00 -5°C° 0.1 mm 2 mps 715 mmHg 91%
    22:00 -5°C° 0.1 mm 2 mps 715 mmHg 91%
    23:00 -5°C° 0.1 mm 2 mps 715 mmHg 91%

    Day after tomorrow, 19 December, Tuesday

    Time Temperature Precipitation Wind Pressure Humidity
    00:00 -5°C° 0.1 mm 2 mps 716 mmHg 91%
    01:00 -6°C° 0.1 mm 2 mps 716 mmHg 91%
    02:00 -6°C° 0 mm 2 mps 716 mmHg 92%
    03:00 -6°C° 0 mm 2 mps 716 mmHg 92%
    04:00 -6°C° 0 mm 2 mps 717 mmHg 92%
    05:00 -6°C° 0 mm 2 mps 717 mmHg 92%
    06:00 -6°C° 0 mm 2 mps 717 mmHg 92%
    07:00 -6°C° 0 mm 2 mps 718 mmHg 92%
    08:00 -5°C° 0 mm 2 mps 718 mmHg 89%
    09:00 -4°C° 0 mm 2 mps 719 mmHg 86%
    10:00 -3°C° 0 mm 2 mps 719 mmHg 83%
    11:00 -3°C° 0 mm 2 mps 719 mmHg 81%
    12:00 -2°C° 0 mm 2 mps 719 mmHg 79%
    13:00 -2°C° 0 mm 2 mps 719 mmHg 77%
    14:00 -2°C° 0 mm 2 mps 719 mmHg 80%
    15:00 -3°C° 0 mm 2 mps 719 mmHg 83%
    16:00 -2°C° 0 mm 1 mps 719 mmHg 86%
    17:00 -3°C° 0 mm 1 mps 719 mmHg 88%
    18:00 -4°C° 0 mm 1 mps 719 mmHg 90%
    19:00 -4°C° 0 mm 1 mps 719 mmHg 91%
    20:00 -6°C° 0 mm 1 mps 719 mmHg 92%
    21:00 -6°C° 0 mm 1 mps 720 mmHg 92%
    22:00 -6°C° 0 mm 1 mps 720 mmHg 92%
    23:00 -6°C° 0 mm 1 mps 720 mmHg 91%

    20 December, Wednesday

    Time Temperature Precipitation Wind Pressure Humidity
    00:00 -7°C° 0 mm 1 mps 719 mmHg 91%
    01:00 -7°C° 0 mm 1 mps 719 mmHg 91%
    02:00 -7°C° 0 mm 1 mps 719 mmHg 90%
    03:00 -7°C° 0 mm 1 mps 719 mmHg 89%
    04:00 -7°C° 0 mm 1 mps 719 mmHg 88%
    05:00 -7°C° 0 mm 1 mps 719 mmHg 86%
    06:00 -8°C° 0 mm 1 mps 719 mmHg 85%
    07:00 -8°C° 0 mm 1 mps 719 mmHg 83%
    08:00 -6°C° 0 mm 1 mps 719 mmHg 80%
    09:00 -3°C° 0 mm 1 mps 720 mmHg 77%
    10:00 -2°C° 0 mm 1 mps 720 mmHg 74%
    11:00 -1°C° 0 mm 1 mps 720 mmHg 73%
    12:00 0°C° 0 mm 1 mps 720 mmHg 72%
    13:00 +1°C° 0 mm 1 mps 719 mmHg 71%
    14:00 -1°C° 0 mm 1 mps 719 mmHg 75%
    15:00 -2°C° 0 mm 1 mps 719 mmHg 79%
    16:00 -3°C° 0 mm 1 mps 719 mmHg 84%
    17:00 -4°C° 0 mm 1 mps 719 mmHg 85%
    18:00 -6°C° 0 mm 1 mps 719 mmHg 86%
    19:00 -6°C° 0 mm 1 mps 720 mmHg 88%
    20:00 -7°C° 0 mm 1 mps 720 mmHg 87%
    21:00 -7°C° 0 mm 1 mps 720 mmHg 86%
    22:00 -7°C° 0 mm 1 mps 720 mmHg 85%
    23:00 -7°C° 0 mm 1 mps 720 mmHg 84%

    21 December, Thursday

    Time Temperature Precipitation Wind Pressure Humidity
    00:00 -7°C° 0 mm 1 mps 720 mmHg 82%
    01:00 -7°C° 0 mm 1 mps 720 mmHg 80%
    02:00 -7°C° 0 mm 1 mps 720 mmHg 79%
    03:00 -7°C° 0 mm 1 mps 720 mmHg 77%
    04:00 -7°C° 0 mm 1 mps 719 mmHg 76%
    05:00 -7°C° 0 mm 1 mps 720 mmHg 76%
    06:00 -6°C° 0 mm 1 mps 720 mmHg 77%
    07:00 -6°C° 0 mm 1 mps 720 mmHg 77%
    08:00 -3°C° 0 mm 1 mps 720 mmHg 76%
    09:00 -1°C° 0 mm 1 mps 720 mmHg 75%
    10:00 +1°C° 0 mm 1 mps 720 mmHg 74%
    11:00 +2°C° 0 mm 1 mps 720 mmHg 74%
    12:00 +3°C° 0 mm 1 mps 719 mmHg 74%
    13:00 +4°C° 0 mm 1 mps 719 mmHg 75%
    14:00 +3°C° 0 mm 1 mps 719 mmHg 78%
    15:00 +2°C° 0 mm 1 mps 718 mmHg 81%
    16:00 +1°C° 0 mm 1 mps 718 mmHg 84%
    17:00 +1°C° 0 mm 1 mps 718 mmHg 84%
    18:00 +1°C° 0 mm 1 mps 718 mmHg 84%
    19:00 +1°C° 0 mm 1 mps 718 mmHg 84%
    20:00 +1°C° 0.1 mm 1 mps 718 mmHg 84%
    21:00 +2°C° 0.1 mm 1 mps 718 mmHg 85%
    22:00 +2°C° 0.1 mm 1 mps 718 mmHg 85%
    23:00 +2°C° 0 mm 1 mps 718 mmHg 85%

    22 December, Friday

    Time Temperature Precipitation Wind Pressure Humidity
    00:00 +2°C° 0 mm 1 mps 718 mmHg 86%
    01:00 +2°C° 0 mm 1 mps 718 mmHg 86%
    02:00 +2°C° 0 mm 1 mps 718 mmHg 86%
    03:00 +1°C° 0 mm 1 mps 718 mmHg 86%
    04:00 +1°C° 0 mm 1 mps 717 mmHg 86%
    05:00 +1°C° 0 mm 1 mps 717 mmHg 86%
    06:00 +2°C° 0 mm 1 mps 717 mmHg 86%
    07:00 +2°C° 0 mm 1 mps 718 mmHg 85%
    08:00 +3°C° 0 mm 1 mps 718 mmHg 85%
    09:00 +4°C° 0 mm 1 mps 718 mmHg 84%
    10:00 +5°C° 0 mm 1 mps 718 mmHg 84%
    11:00 +6°C° 0 mm 1 mps 717 mmHg 84%
    12:00 +6°C° 0 mm 1 mps 717 mmHg 85%
    13:00 +7°C° 0 mm 1 mps 717 mmHg 86%
    14:00 +6°C° 0 mm 1 mps 716 mmHg 87%
    15:00 +5°C° 0 mm 1 mps 716 mmHg 88%
    16:00 +4°C° 0 mm 1 mps 716 mmHg 89%
    17:00 +3°C° 0 mm 1 mps 716 mmHg 88%
    18:00 +2°C° 0 mm 1 mps 716 mmHg 87%
    19:00 +2°C° 0 mm 1 mps 716 mmHg 85%
    20:00 +2°C° 0 mm 1 mps 716 mmHg 85%
    21:00 +1°C° 0 mm 1 mps 715 mmHg 84%
    22:00 +1°C° 0 mm 1 mps 715 mmHg 83%
    23:00 +1°C° 0 mm 1 mps 715 mmHg 82%
    Show more